Location: Beuvrequen
(50.8014°N, 1.6652°E)
Time: 02:08:50
(UTC+00:00)

Meteor 1-21 Rocket - Pass Details

Date: 16 October 2021
Orbit: 834 x 906 km, 81.2° (Epoch: 28 November)

Event Time Altitude Azimuth Distance (km) Brightness Sun altitude
Rises 18:14:07 0° 347° (NNW) 3,485 7.6 -12.7°
Reaches altitude 10° 18:16:33 10° 348° (NNW) 2,553 6.9 -13.0°
Maximum altitude 18:22:24 87° 75° (ENE) 902 4.3 -14.0°
Drops below altitude 10° 18:28:18 10° 168° (SSE) 2,574 6.6 -14.9°
Sets 18:30:45 0° 169° (S) 3,515 7.3 -15.3°
